Home > Weather > Changsha > Past weeks

Flag for China Past Weather in Changsha, Hunan, China — Yesterday and Last 2 Weeks

Now
79 °F

Light rain. Partly sunny.


Feels Like: 82 °F
Forecast: 79 / 89 °F
Wind: 8 mph from South

Location: Changsha

Current Time: Jun 29, 2016 at 1:41:13 PM

Latest Report: Jun 29, 2016 at 1:00 PM


Visibility: 4 mi

Pressure: 29.77 "Hg

Humidity: 89%

Dew Point: 75 °F

Location of ChangshaLocation

Past Weather in Changsha — Graph

°F

Changsha Temperature Yesterday

Maximum temperature yesterday: 86 °F (at 3:00 PM)
Minimum temperature yesterday: 72 °F (at 2:00 AM)
Average temperature yesterday: 77 °F

High & Low Weather Summary for the Past Weeks

 TemperatureHumidityPressure
High97 °F (Jun 21, 12:00 PM)94% (Jun 15, 5:00 AM)29.89 "Hg (Jun 15, 5:00 AM)
Low68 °F (Jun 15, 2:00 PM)36% (Jun 17, 3:00 PM)29.47 "Hg (Jun 14, 5:00 PM)
Average81 °F71%29.70 "Hg
* Reported Jun 14 12:00 PM — Jun 29 12:00 PM, Changsha, Weather by CustomWeather, © 2016

Note: Actual official high and low records may vary slightly from our data, if they occured in-between our weather recording intervals... More about our weather records

Advertising

Changsha Weather History for the Previous 24 Hours

Scroll right to see more
 ConditionsComfort  
Time TempWeatherWind HumidityBarometerVisibility
12:00 PM
Wed, Jun 29
77 °FRain. Fog.8 mph94%29.80 "Hg2 mi
11:00 AM77 °FRain. Fog.8 mph94%29.83 "Hg2 mi
10:00 AM77 °FRain. Fog.3 mph94%29.83 "Hg1 mi
9:00 AM77 °FLots of rain. Fog.1 mph94%29.80 "Hg1 mi
8:00 AM77 °FThunderstorms. Fog.8 mph89%29.80 "Hg1 mi
7:00 AM77 °FLight rain. Fog.1 mph89%29.77 "Hg1 mi
6:00 AM77 °FThunderstorms. Fog.6 mph89%29.77 "Hg1 mi
5:00 AM77 °FThunderstorms. Fog.3 mph89%29.74 "Hg2 mi
4:00 AM77 °FThunderstorms. Fog.1 mph89%29.74 "Hg3 mi
3:00 AM77 °FFog.3 mph89%29.74 "Hg3 mi
2:00 AM77 °FFog.1 mph89%29.71 "Hg3 mi
1:00 AM77 °FFog.3 mph83%29.74 "Hg3 mi
12:00 AM77 °FFog.3 mph83%29.77 "Hg3 mi
11:00 PM
Tue, Jun 28
77 °FFog.6 mph83%29.77 "Hg3 mi
10:00 PM77 °FFog.6 mph83%29.74 "Hg3 mi
9:00 PM77 °FFog.8 mph83%29.74 "Hg3 mi
8:00 PM77 °FFog.8 mph83%29.74 "Hg2 mi
7:00 PM81 °FFog.8 mph74%29.71 "Hg3 mi
6:00 PM81 °FFog.8 mph74%29.71 "Hg3 mi
5:00 PM82 °FFog.10 mph70%29.71 "Hg3 mi
4:00 PM84 °FClear.10 mph66%29.71 "Hg4 mi
3:00 PM86 °FPassing clouds.6 mph62%29.71 "Hg4 mi
2:00 PM84 °FClear.3 mph66%29.71 "Hg4 mi
1:00 PM84 °FPassing clouds.3 mph62%29.74 "Hg4 mi
Weather by CustomWeather, © 2016

See weather overviewHow to use our weather pages